[[{"header":{"parameterUnit":"m.s-1","parameterCategory":1,"la1":30.2991,"la2":30.254,"lo1":-89.0895,"lo2":-89.0444,"dy":0.0017,"dx":0.0017,"nx":28,"ny":28,"refTime":"2023-08-30T21:00:00:Z","depth":0,"parameterNumber":2,"parameterNumberName":"U-component_of_WINDS"},"data":[0,0,0,0,0,0,0,0,0,0,0,0,0,0,0,0,0,0,0,0,0,0,0,0,0,0,0,0,0,0,0,0,0,0,0,0,0,0,0,0,0,0,0,0,0,0,0,0,0,0,0,0,0,0,0,0,0,0,-1.354,-1.3539,0,-1.3461,-1.346,-1.3459,-1.3441,-1.3442,-1.3443,-1.3443,-1.3356,-1.3353,-1.335,0,0,0,0,0,0,0,0,0,0,0,0,0,-1.3669,-1.3667,-1.354,-1.3539,-1.3538,-1.3461,-1.346,-1.3459,-1.3441,-1.3442,-1.3443,-1.3443,-1.3357,-1.3354,-1.335,0,0,0,0,0,0,0,0,0,0,0,0,0,-1.3604,-1.3666,-1.354,-1.352,-1.3518,-1.3462,-1.346,-1.3459,-1.3441,-1.3442,-1.3443,-1.3444,-1.3358,-1.3354,-1.335,-1.3306,0,0,-1.3337,-1.3335,0,0,0,0,0,0,0,0,-1.3608,-1.3599,-1.3524,-1.3521,-1.3518,-1.3462,-1.3474,-1.3407,-1.3441,-1.347,-1.3443,-1.3444,-1.339,-1.3383,-1.3366,-1.3302,-1.3298,-1.3336,-1.3334,-1.3332,-1.3331,0,0,0,0,0,0,0,-1.3612,-1.3602,-1.3509,-1.3523,-1.352,-1.3513,-1.3505,-1.3461,-1.3426,-1.3468,-1.3466,-1.3457,-1.3389,-1.3371,-1.3364,-1.3297,-1.3336,-1.3332,-1.333,-1.3328,-1.3191,-1.319,0,0,0,0,0,0,-1.3621,-1.3606,-1.3511,-1.3506,-1.3566,-1.351,-1.3501,-1.3479,-1.3427,-1.3419,-1.3457,-1.3457,-1.3377,-1.3369,-1.3361,-1.3305,-1.3332,-1.3328,-1.3325,-1.3192,-1.3191,-1.319,0,0,0,0,0,0,-1.3624,-1.3613,-1.3514,-1.3556,-1.3543,-1.3507,-1.3483,-1.3477,-1.3459,-1.3418,-1.3411,-1.3445,-1.3378,-1.3367,-1.332,-1.3302,-1.3326,-1.3322,-1.3194,-1.3192,-1.319,-1.3195,0,0,0,0,0,0,-1.3628,-1.3614,-1.3598,-1.3556,-1.3541,-1.3476,-1.3482,-1.3475,-1.3453,-1.3452,-1.3406,-1.3399,-1.3378,-1.3327,-1.3316,-1.3297,-1.3319,-1.3195,-1.3193,-1.3191,-1.3196,-1.3194,-1.3191,0,0,0,0,0,-1.3633,-1.3602,-1.3598,-1.3586,-1.3521,-1.3476,-1.3467,-1.3445,-1.3451,-1.3434,-1.3408,-1.34,-1.3307,-1.3322,-1.331,-1.3289,-1.3196,-1.3193,-1.3191,-1.3197,-1.3194,-1.3191,0,0,0,0,0,0,-1.3641,-1.3596,-1.3591,-1.3546,-1.3515,-1.3473,-1.3451,-1.3443,-1.3408,-1.3408,-1.3381,-1.3371,-1.3325,-1.3302,-1.332,-1.3243,-1.3251,-1.3246,-1.326,-1.3257,-1.3254,-1.326,-1.3315,0,0,0,0,0,-1.3638,-1.3607,-1.3568,-1.3532,-1.3517,-1.3487,-1.3466,-1.3452,-1.3418,-1.3404,-1.3375,-1.334,-1.3303,-1.3279,-1.3242,-1.3193,-1.3182,-1.3173,-1.3171,-1.3169,-1.3164,-1.3135,-1.313,-1.3182,-1.3182,-1.3182,0,0,-1.3631,-1.3602,-1.3584,-1.3533,-1.3507,-1.3474,-1.3476,-1.344,-1.3414,-1.3398,-1.3352,-1.3329,-1.3289,-1.3241,-1.3218,-1.322,-1.3148,-1.3166,-1.3165,-1.3161,-1.3132,-1.3128,-1.3123,-1.318,-1.3181,-1.3181,0,0,-1.36,-1.3576,-1.3543,-1.3518,-1.348,-1.346,-1.3452,-1.3411,-1.3396,-1.335,-1.3337,-1.3305,-1.3242,-1.3213,-1.319,-1.3149,-1.314,-1.3138,-1.3125,-1.3097,-1.3093,-1.3089,-1.3073,-1.3068,-1.3134,-1.3134,-1.3134,0,-1.3595,-1.3546,-1.3526,-1.3491,-1.3469,-1.3455,-1.342,-1.3396,-1.3347,-1.3331,-1.3335,-1.3255,-1.3227,-1.3171,-1.3162,-1.3144,-1.3132,-1.3142,-1.3096,-1.3092,-1.3088,-1.3072,-1.3066,-1.3134,-1.3134,-1.3134,-1.3134,0,-1.354,-1.3506,-1.3484,-1.3439,-1.3414,-1.3379,-1.3353,-1.3329,-1.3318,-1.3297,-1.3249,-1.3215,-1.3171,-1.3157,-1.3145,-1.3099,-1.3102,-1.3102,-1.3108,-1.3083,-1.3068,-1.3061,-1.3134,-1.3134,-1.3134,-1.3134,0,0,-1.3511,-1.3458,-1.3449,-1.3429,-1.3386,-1.3358,-1.3322,-1.3281,-1.3261,-1.3228,-1.3195,-1.3142,-1.3142,-1.3116,-1.31,-1.3076,-1.3044,-1.3078,-1.3076,-1.3071,-1.2989,-1.2989,-1.2982,-1.3038,-1.3037,-1.3036,-1.2992,0,-1.3474,-1.3411,-1.3393,-1.3339,-1.3306,-1.3294,-1.3262,-1.3231,-1.3211,-1.3178,-1.3155,-1.3117,-1.312,-1.3104,-1.308,-1.3053,-1.3027,-1.3056,-1.3005,-1.3004,-1.3014,-1.2974,-1.2974,-1.2934,-1.2986,-1.2985,-1.2984,0,-1.3422,-1.339,-1.3334,-1.3295,-1.328,-1.3252,-1.3213,-1.3183,-1.3147,-1.3134,-1.3106,-1.3093,-1.3052,-1.3063,-1.3006,-1.3026,-1.3005,-1.2988,-1.2986,-1.2979,-1.2991,-1.2964,-1.2921,-1.2914,-1.2975,-1.2976,-1.2976,0,-1.3404,-1.3347,-1.3306,-1.3289,-1.3243,-1.3223,-1.3203,-1.3168,-1.3145,-1.311,-1.3094,-1.3054,-1.3032,-1.3,-1.2976,-1.2986,-1.292,-1.2929,-1.2906,-1.2907,-1.2891,-1.2892,-1.2842,-1.288,-1.288,-1.2881,-1.2881,0,-1.3364,-1.3329,-1.3297,-1.3271,-1.3232,-1.3211,-1.3171,-1.315,-1.3119,-1.3088,-1.3074,-1.3044,-1.3015,-1.298,-1.2961,-1.2916,-1.2906,-1.2892,-1.2887,-1.2893,-1.2894,-1.2876,-1.2878,-1.2879,-1.2879,-1.288,-1.288,0,-1.3337,-1.3314,-1.3268,-1.3229,-1.3218,-1.3191,-1.3156,-1.313,-1.311,-1.307,-1.3059,-1.3026,-1.2985,-1.2958,-1.2905,-1.2892,-1.2842,-1.2839,-1.2855,-1.2852,-1.283,-1.2831,-1.2764,-1.2754,-1.2802,-1.2801,-1.2801,0,-1.3311,-1.3285,-1.3243,-1.3222,-1.3202,-1.3168,-1.3145,-1.3123,-1.3098,-1.3056,-1.3034,-1.2992,-1.2958,-1.2892,-1.2862,-1.2822,-1.2816,-1.2795,-1.2809,-1.2815,-1.2813,-1.2814,-1.2811,-1.2792,-1.2792,-1.2791,-1.2791,0,-1.3268,-1.3258,-1.3226,-1.3189,-1.3162,-1.3132,-1.3101,-1.3084,-1.3056,-1.3029,-1.2988,-1.2962,-1.2909,-1.2867,-1.2823,-1.28,-1.279,-1.2788,-1.278,-1.2784,-1.2793,-1.2786,-1.2847,-1.2788,-1.2789,-1.2789,-1.2789,-1.2789,-1.3239,-1.3215,-1.3182,-1.3146,-1.3121,-1.3093,-1.3066,-1.3044,-1.301,-1.2966,-1.2955,-1.2911,-1.2875,-1.2816,-1.2792,-1.2757,-1.2759,-1.2748,-1.2744,-1.2742,-1.2741,-1.2801,-1.2749,-1.2749,-1.2749,-1.2749,-1.2749,0,-1.3194,-1.3173,-1.314,-1.3099,-1.307,-1.3066,-1.3032,-1.3008,-1.297,-1.2939,-1.2906,-1.2858,-1.2817,-1.2785,-1.2743,-1.272,-1.2715,-1.271,-1.271,-1.2704,-1.2742,-1.2752,-1.2715,-1.2715,-1.2715,-1.2715,-1.2715,-1.2715,-1.3167,-1.3125,-1.3111,-1.3056,-1.3034,-1.2994,-1.2974,-1.2947,-1.2922,-1.287,-1.2837,-1.2817,-1.2784,-1.274,-1.2702,-1.2693,-1.2677,-1.2673,-1.2663,-1.2698,-1.2702,-1.2705,-1.2715,-1.267,-1.267,-1.2628,-1.2628,-1.2628]},{"header":{"parameterUnit":"m.s-1","parameterCategory":1,"la1":30.2991,"la2":30.254,"lo1":-89.0895,"lo2":-89.0444,"dy":0.0017,"dx":0.0017,"nx":28,"ny":28,"refTime":"2023-08-30T21:00:00:Z","depth":0,"parameterNumber":3,"parameterNumberName":"V-component_of_WINDS"},"data":[0,0,0,0,0,0,0,0,0,0,0,0,0,0,0,0,0,0,0,0,0,0,0,0,0,0,0,0,0,0,0,0,0,0,0,0,0,0,0,0,0,0,0,0,0,0,0,0,0,0,0,0,0,0,0,0,0,0,0.6152,0.6153,0,0.6257,0.6258,0.6259,0.6274,0.6273,0.6272,0.6271,0.6382,0.6386,0.639,0,0,0,0,0,0,0,0,0,0,0,0,0,0.5966,0.5969,0.6151,0.6153,0.6154,0.6257,0.6258,0.626,0.6274,0.6273,0.6272,0.6271,0.6381,0.6385,0.639,0,0,0,0,0,0,0,0,0,0,0,0,0,0.6056,0.597,0.6151,0.6174,0.6177,0.6257,0.6258,0.626,0.6275,0.6273,0.6272,0.627,0.6379,0.6385,0.6391,0.6456,0,0,0.6408,0.6411,0,0,0,0,0,0,0,0,0.6051,0.6063,0.6169,0.6172,0.6176,0.6251,0.6233,0.6326,0.6275,0.6237,0.6271,0.6269,0.634,0.6349,0.6372,0.6461,0.6466,0.6409,0.6412,0.6415,0.6416,0,0,0,0,0,0,0,0.6045,0.6059,0.6193,0.6171,0.6175,0.618,0.6191,0.6251,0.6296,0.6241,0.6242,0.6254,0.6341,0.6366,0.6375,0.6468,0.6409,0.6414,0.6417,0.642,0.6619,0.6621,0,0,0,0,0,0,0.6034,0.6053,0.619,0.6196,0.6108,0.6184,0.6197,0.6228,0.6295,0.6304,0.6255,0.6254,0.6357,0.6368,0.6378,0.6462,0.6415,0.642,0.6424,0.6617,0.6619,0.6621,0,0,0,0,0,0,0.603,0.6046,0.6186,0.6125,0.6143,0.6189,0.6224,0.6231,0.6256,0.6306,0.6314,0.6272,0.6356,0.637,0.6437,0.6465,0.6423,0.6428,0.6615,0.6618,0.662,0.6627,0,0,0,0,0,0,0.6025,0.6045,0.6069,0.6126,0.6147,0.6241,0.6226,0.6234,0.6266,0.6266,0.6324,0.6333,0.6356,0.6428,0.6443,0.6473,0.6433,0.6613,0.6616,0.662,0.6624,0.6629,0.6634,0,0,0,0,0,0.6018,0.6067,0.607,0.6087,0.6178,0.6243,0.6255,0.628,0.6268,0.6294,0.6326,0.6331,0.646,0.6435,0.6452,0.6484,0.6611,0.6615,0.6619,0.6622,0.6628,0.6634,0,0,0,0,0,0,0.6013,0.6074,0.6079,0.6147,0.619,0.6245,0.6278,0.6286,0.6333,0.6331,0.6361,0.6375,0.644,0.6469,0.644,0.6552,0.6535,0.6542,0.6531,0.6537,0.6542,0.6534,0.6438,0,0,0,0,0,0.6019,0.6066,0.6118,0.6173,0.6194,0.6233,0.6262,0.6278,0.6323,0.6341,0.6379,0.6423,0.6474,0.6507,0.6557,0.6628,0.6642,0.6658,0.6663,0.6667,0.6673,0.6716,0.6724,0.6635,0.6635,0.6635,0,0,0.6034,0.6073,0.6101,0.6173,0.6208,0.6257,0.6248,0.6299,0.6336,0.635,0.6415,0.6444,0.6496,0.6566,0.6599,0.6592,0.6701,0.6672,0.6674,0.6679,0.6721,0.6729,0.6736,0.6638,0.6637,0.6637,0,0,0.6085,0.6119,0.617,0.6205,0.6258,0.6283,0.6295,0.635,0.637,0.6436,0.6447,0.6492,0.6579,0.6616,0.6646,0.6714,0.6721,0.6729,0.6754,0.6795,0.6802,0.6808,0.6834,0.6843,0.6735,0.6735,0.6735,0,0.6097,0.617,0.6195,0.6247,0.6279,0.6293,0.6346,0.6379,0.6445,0.6468,0.6458,0.6568,0.6604,0.6684,0.6701,0.6724,0.674,0.6723,0.6799,0.6805,0.6812,0.6837,0.6846,0.6736,0.6736,0.6736,0.6736,0,0.6183,0.6234,0.6268,0.6332,0.6368,0.642,0.6454,0.6488,0.6501,0.6528,0.6596,0.664,0.6699,0.6719,0.6732,0.6802,0.6796,0.6792,0.6776,0.6821,0.6845,0.6855,0.6737,0.6737,0.6737,0.6736,0,0,0.6234,0.6311,0.6324,0.6354,0.6413,0.6454,0.6507,0.6565,0.6594,0.664,0.6686,0.676,0.6757,0.6792,0.6809,0.6845,0.6898,0.6837,0.6839,0.6848,0.6979,0.6983,0.6993,0.6902,0.6904,0.6906,0.6976,0,0.6294,0.6388,0.6413,0.6494,0.6543,0.6557,0.6604,0.6646,0.6673,0.6719,0.6749,0.6802,0.6793,0.6814,0.685,0.6884,0.6925,0.6879,0.6948,0.695,0.6936,0.7006,0.7009,0.7073,0.6985,0.6987,0.6988,0,0.6376,0.6423,0.6509,0.6564,0.6586,0.6627,0.6683,0.6726,0.6775,0.6793,0.6832,0.6846,0.6904,0.6884,0.6965,0.6933,0.6963,0.6984,0.6987,0.6996,0.6973,0.7018,0.7094,0.7104,0.7003,0.7001,0.7,0,0.6407,0.6492,0.6555,0.658,0.6645,0.6675,0.6703,0.6751,0.6785,0.6834,0.6856,0.6911,0.6942,0.6985,0.7015,0.6997,0.7095,0.7076,0.7113,0.7112,0.7133,0.7132,0.7217,0.715,0.715,0.715,0.7149,0,0.6472,0.6524,0.657,0.6609,0.6669,0.6697,0.6756,0.6786,0.6828,0.6874,0.689,0.6933,0.6969,0.7017,0.7041,0.7106,0.712,0.7137,0.7143,0.7136,0.7134,0.7157,0.7154,0.7152,0.7152,0.7151,0.7151,0,0.6517,0.6549,0.6619,0.6675,0.6691,0.6733,0.6782,0.6821,0.6848,0.6907,0.6922,0.6966,0.7024,0.7058,0.7131,0.7147,0.722,0.7223,0.7203,0.7206,0.7241,0.7238,0.7345,0.7362,0.7282,0.7282,0.7283,0,0.6557,0.6598,0.6659,0.669,0.672,0.677,0.6805,0.6835,0.6871,0.6931,0.6963,0.7022,0.7071,0.7163,0.7202,0.7259,0.7265,0.7299,0.7274,0.7267,0.7268,0.7266,0.7271,0.7303,0.7304,0.7304,0.7305,0,0.6625,0.6639,0.6688,0.6744,0.6784,0.6829,0.6874,0.6899,0.6937,0.6977,0.7036,0.7074,0.7149,0.7208,0.7268,0.7299,0.731,0.7312,0.7324,0.7319,0.7306,0.7316,0.7217,0.731,0.731,0.7309,0.7309,0.7309,0.667,0.6708,0.6757,0.6812,0.6849,0.689,0.6931,0.6963,0.7013,0.7076,0.7091,0.7154,0.7204,0.7286,0.7319,0.737,0.7364,0.7381,0.7385,0.7389,0.7391,0.7297,0.7381,0.7381,0.738,0.738,0.738,0,0.6741,0.6774,0.6823,0.6886,0.6929,0.6934,0.6984,0.702,0.7075,0.7121,0.7169,0.7238,0.7296,0.734,0.7399,0.7432,0.7438,0.7447,0.7445,0.7453,0.7392,0.7377,0.7441,0.7441,0.7441,0.7441,0.7441,0.744,0.6783,0.6848,0.6868,0.6952,0.6985,0.7046,0.7075,0.7114,0.7151,0.7227,0.7275,0.7303,0.7349,0.7412,0.7466,0.7478,0.75,0.7508,0.7521,0.7463,0.7457,0.7451,0.7437,0.7512,0.7512,0.7578,0.7578,0.7579]}]]